Airfield :
LOGIN :

Register | Disclaimer

   EN    FR    IT 

 










Legend :    VFR   Marginal VFR   IFR   Intensive IFR   Very Intensive IFR
Visi :
Ceiling :
>= 8 km
>= 3000ft
5 to 8 km
1000 to 3000 ft
1500m to 5 km
500 to 1000 ft
800 to 1500m
200 to 500 ft
< 800m
< 200 ft
Symbols :   Thunderstorms  Fog  Heavy snow  Heavy precipitations  Wind > 20 kt
SIGMETs :     Misc.  Thunderstorms  Icing  Turbulence  Mountain Waves  Volcanic Ashes






- Airport Elevation : 755 ft
- IATA code : RWN


UKLR - Rivne

CURRENT METAR :
  • 281500Z 08004MPS CAVOK 12/07 Q1026 R11/090070 NOSIG

EXPIRED METARs :
  • 281430Z 09004MPS CAVOK 13/07 Q1026 R11/090070 NOSIG
  • 281400Z 09005MPS 050V110 9999 SCT028CB 12/06 Q1026 R11/090070 NOSIG
  • 281330Z 09004MPS 9999 FEW027CB SCT027 12/07 Q1026 R11/090070 NOSIG

TAF TAF UKLR
Valid from the 28 at 12:00 until the 28 at 21:00 UTC


281110Z 2812/2821 08005MPS 9999 BKN020



MET'MAP, your aeronautical weather chart ! - Copyright ORBIFLY December 2007 - Disclaimer

ORBIFLY MET'MAP TEAM :

Programming & Development : Alexandra Zaïnal
Concept & original design : Baudouin d'Aumeries
Assistance for programming : Marc-Olivier Méhu
Technical & hardware support : Manuel Goepfert

Contact : metmap@orbifly.com




SOURCES & CREDITS :

   NOAA